Hourly Data Report for July 16, 2021

RANKIN INLET A
NUNAVUT
Current Station Operator: NAVCAN

62°48'38.000" N
92°06'53.000" W
32.30 m
2303405
71083
YRT

Download Data

Hourly Data (July 2021)
Hourly Data Report for July 16, 2021
TIME
LST
Temp Definition
°C
Dew Point Definition
°C
Rel Hum Definition
%
Precip. Amount Definition
mm

Wind Dir Definition
10's deg

Wind Spd Definition
km/h
Visibility Definition
km
Stn Press Definition
kPa
Hmdx Definition


Wind Chill Definition


Weather Definition


00:00 13.7 12.8 94   35 31 24.1 99.70     Thunderstorms,Rain Showers
01:00 12.3 11.4 94   2 21 16.1 99.76     Rain Showers
02:00 11.7 10.7 94   2 23 16.1 99.75     Rain
03:00 11.3 10.4 94   36 27 24.1 99.68     Cloudy
04:00 10.3 9.1 92   7 25 16.1 99.80     Rain
05:00 8.7 7.4 92   7 31 24.1 99.77     Rain
06:00 8.5 6.5 87   7 34 24.1 99.79     Cloudy
07:00 8.4 6.5 88   7 32 24.1 99.77     LegendNANA
08:00 8.5 6.1 85   6 44 24.1 99.72     LegendNANA
09:00 7.3 5.4 88   7 37 24.1 99.76     Cloudy
10:00 6.3 4.9 91   7 39 9.7 99.71     Rain Showers, Fog
11:00 5.8 4.6 92   7 38 4.8 99.74     Rain Showers, Fog
12:00 5.6 4.8 95   4 39 3.2 99.76     Rain Showers, Fog
13:00 6.0 4.3 89   5 40 16.1 99.74     Rain Showers
14:00 6.4 4.9 90   3 42 24.1 99.82     LegendNANA
15:00 6.5 4.9 89   3 46 9.7 99.90     Rain Showers, Fog
16:00 6.3 5.5 95   2 51 9.7 99.94     Thunderstorms,Rain Showers, Fog
17:00 7.0 4.9 87   1 53 24.1 99.93     LegendNANA
18:00 6.4 4.3 86   36 54 24.1 100.08     Cloudy
19:00 6.0 4.4 90   35 53 16.1 100.26     Rain Showers
20:00 4.9 3.3 90   35 63 24.1 100.38     LegendNANA
21:00 4.4 2.9 90   35 54 24.1 100.49     Mostly Cloudy
22:00 5.1 3.5 89   35 47 24.1 100.61     LegendNANA
23:00 5.3 3.3 87   35 46 24.1 100.70     LegendNANA

Notes on Data Quality.

Legend

  • E = Estimated
  • M = Missing
  • NA = Not Available*
  • [empty] = Indicates an unobserved value
Date modified: